This demonstration page uses our WeatherBlox Daily Observations layout. Learn more.

Left ArrowRight Arrow

Hourly Observations for March 13, 2020

Temp ( °F °C ) Dew Point ( °F °C ) Humidity (%) Winds ( mph kmh ) Pressure ( in mb ) Visibility ( mi km ) Precip ( " mm )
12:15 am 00:15 Cloudy 55 12.7 53 11.8 94 94 NW 8 13 29.73 1007 10 16 N/A
12:30 am 00:30 Cloudy 55 12.5 53 11.7 95 95 WNW 7 11 29.75 1008 10 16 N/A
12:55 am 00:55 Cloudy 54 12.1 53 11.5 96 96 WNW 9 15 29.77 1008 7 11 N/A
2:20 am 02:20 Cloudy N/A N/A N/A NW 15 24 N/A 10 16 N/A
4:55 am 04:55 Partly Cloudy 43 6.3 38 3.1 80 80 WNW 10 17 29.97 1015 10 16 N/A
5:15 am 05:15 Partly Cloudy 43 6.1 36 2.2 76 76 NW 14 22 29.99 1016 10 16 N/A
5:35 am 05:35 Cloudy 43 6 37 2.6 79 79 NW 14 22 30.02 1017 10 16 N/A
5:55 am 05:55 Mostly Cloudy 42 5.7 36 2.1 78 78 WNW 9 15 30.03 1017 10 16 N/A
6:15 am 06:15 Partly Cloudy 42 5.5 36 2 78 78 NW 12 19 30.05 1018 10 16 N/A
6:35 am 06:35 Cloudy 42 5.5 36 2.1 79 79 NW 10 17 30.06 1018 10 16 N/A
6:55 am 06:55 Cloudy 41 5.2 36 2.1 81 81 WNW 15 24 30.08 1018 10 16 N/A
7:15 am 07:15 Mostly Cloudy 40 4.5 34 0.9 78 78 NW 16 26 30.10 1019 10 16 N/A
7:40 am 07:40 Partly Cloudy 38 3.5 33 0.5 81 81 WNW 12 19 30.12 1020 10 16 N/A
7:55 am 07:55 Partly Cloudy 38 3.1 32 undefined 80 80 WNW 10 17 30.14 1021 10 16 N/A
8:15 am 08:15 Partly Cloudy 37 2.7 31 -0.3 81 81 WNW 12 19 30.16 1021 10 16 N/A
8:35 am 08:35 Sunny 37 2.6 31 -0.8 79 79 WNW 9 15 30.18 1022 10 16 N/A
8:55 am 08:55 Sunny 37 2.5 29 -1.4 76 76 WNW 9 15 30.20 1023 10 16 N/A
9:15 am 09:15 Sunny 37 2.5 28 -2.1 72 72 WNW 12 19 30.21 1023 10 16 N/A
9:35 am 09:35 Sunny 37 2.8 28 -2 71 71 NW 10 17 30.21 1023 10 16 N/A
9:55 am 09:55 Sunny 38 3.2 29 -1.6 71 71 WNW 8 13 30.22 1023 10 16 N/A
10:15 am 10:15 Sunny 38 3.6 30 -1.2 71 71 WNW 9 15 30.23 1024 10 16 N/A
10:35 am 10:35 Sunny 39 3.7 29 -1.4 70 70 WNW 10 17 30.23 1024 10 16 N/A
10:55 am 10:55 Sunny 39 4.1 30 -1.2 69 69 WNW 13 20 30.25 1024 10 16 N/A
11:15 am 11:15 Sunny 40 4.3 29 -1.7 65 65 WNW 12 19 30.26 1025 10 16 N/A
11:35 am 11:35 Sunny 40 4.5 29 -1.6 65 65 NW 14 22 30.26 1025 10 16 N/A
11:50 am 11:50 Sunny 41 4.8 29 -1.6 64 64 W 14 22 30.27 1025 10 16 N/A
12:35 pm 12:35 Sunny 43 6 30 -1.2 60 60 WNW 9 15 30.29 1026 10 16 N/A
12:55 pm 12:55 Sunny 42 5.8 29 -1.5 60 60 WNW 8 13 30.29 1026 10 16 N/A
1:15 pm 13:15 Sunny 44 6.5 30 -1 59 59 W 7 11 30.29 1026 10 16 N/A
1:35 pm 13:35 Sunny 44 6.5 30 -0.9 60 60 W 13 20 30.30 1026 10 16 N/A
1:55 pm 13:55 Sunny 44 6.7 29 -1.4 57 57 W 15 24 30.31 1026 10 16 N/A
2:15 pm 14:15 Sunny 44 6.8 29 -1.7 55 55 W 9 15 30.32 1027 10 16 N/A
2:35 pm 14:35 Sunny 44 6.9 28 -2.1 53 53 WNW 12 19 30.32 1027 10 16 N/A
2:55 pm 14:55 Sunny 46 7.5 29 -1.9 52 52 W 13 20 30.32 1027 10 16 N/A
3:15 pm 15:15 Sunny 46 8 28 -2.1 49 49 WNW 9 15 30.31 1026 10 16 N/A
3:35 pm 15:35 Sunny 47 8.5 29 -1.8 49 49 W 12 19 30.30 1026 10 16 N/A
3:55 pm 15:55 Sunny 47 8.4 27 -2.7 46 46 WNW 9 15 30.30 1026 10 16 N/A
4:15 pm 16:15 Sunny 47 8.1 26 -3.5 44 44 WNW 8 13 30.31 1026 10 16 N/A
4:35 pm 16:35 Sunny 46 8 26 -3.3 45 45 WNW 9 15 30.32 1027 10 16 N/A
4:55 pm 16:55 Sunny 47 8.5 28 -2.4 47 47 W 10 17 30.33 1027 10 16 N/A
5:15 pm 17:15 Sunny 47 8.5 27 -2.6 46 46 WNW 12 19 30.33 1027 10 16 N/A
5:35 pm 17:35 Sunny 47 8.6 28 -2.4 46 46 NW 12 19 30.33 1027 10 16 N/A
5:55 pm 17:55 Sunny 47 8.5 27 -2.6 46 46 WNW 8 13 30.35 1028 10 16 N/A
6:15 pm 18:15 Sunny 47 8.2 26 -3.1 45 45 WNW 8 13 30.35 1028 10 16 N/A
6:35 pm 18:35 Sunny 47 8.1 25 -3.9 43 43 NW 12 19 30.35 1028 10 16 N/A
6:55 pm 18:55 Sunny 46 8 26 -3.6 44 44 NW 8 13 30.36 1028 10 16 N/A
7:15 pm 19:15 Sunny 46 7.8 26 -3.6 45 45 NW 8 13 30.36 1028 10 16 N/A
7:35 pm 19:35 Sunny 46 7.5 27 -3 48 48 NW 6 9 30.37 1028 10 16 N/A
7:55 pm 19:55 Clear 44 6.9 27 -2.9 50 50 NW 8 13 30.37 1028 10 16 N/A
8:15 pm 20:15 Clear 44 6.7 26 -3.3 49 49 NW 7 11 30.37 1028 10 16 N/A
8:35 pm 20:35 Clear 43 6.2 26 -3.1 52 52 N N/A 30.37 1029 10 16 N/A
8:55 pm 20:55 Clear 43 6 26 -3.1 52 52 N N/A 30.38 1029 10 16 N/A
9:10 pm 21:10 Clear 42 5.7 26 -3.4 52 52 N N/A 30.38 1029 10 16 N/A
11:55 pm 23:55 Clear N/A N/A N/A N N/A N/A 10 16 N/A

Powered by AerisWeather